Flag for Greece Weather past 2 weeks in Santorini, Greece

Now
50 °F

Cool.


Feels Like: 48 °F
Forecast: 60 / 64 °F
Wind: 6 mph from Northwest

Location: Santorini Island

Current Time: Mar 5, 2015 at 5:16:42 AM

Latest Report: Mar 5, 2015 at 3:50 AM


Visibility: N/A

Pressure: 30.15 "Hg

Humidity: 71%

Dew point: 41 °F

Location of SantoriniLocation

Historic Weather in Santorini — Graph

°F

Santorini temperature yesterday

Maximum temperature yesterday: 63 °F (at 10:50 AM)
Minimum temperature yesterday: 52 °F (at 11:50 PM)
Average temperature yesterday: 59 °F

Past Weeks' High & Low Weather Summary

 TemperatureHumidityPressure
High64 °F (Mar 3, 2:50 PM)100% (Feb 18, 6:50 AM)30.39 "Hg (Feb 18, 6:50 AM)
Low34 °F (Feb 19, 1:20 AM)34% (Feb 19, 11:50 PM)29.65 "Hg (Feb 24, 12:50 PM)
Average55 °F71%30.01 "Hg
* Reported Feb 18 3:20 AM — Mar 5 3:50 AM, Santorini, Weather by CustomWeather, © 2015

Note: Actual official high and low records may vary slightly from our data, if they occured in-between our weather recording intervals... More about our weather records

Advertising

Santorini weather history for previous 24 hours

 ConditionsComfort  
Time TempWeatherWind HumidityBarometerVisibility
3:50 AM
Thu, Mar 5
50 °FCool.6 mph71%30.15 "HgN/A
3:20 AM48 °FCool.6 mph76%30.15 "HgN/A
2:50 AM48 °FCool.7 mph76%30.15 "HgN/A
2:20 AM48 °FCool.6 mph76%30.18 "HgN/A
1:50 AM50 °FCool.6 mph71%30.18 "HgN/A
1:20 AM50 °FCool.5 mph71%30.18 "HgN/A
12:50 AM50 °FLight rain. Overcast.5 mph71%30.18 "HgN/A
12:20 AM52 °FLight rain. Overcast.3 mph62%30.18 "HgN/A
11:50 PM
Wed, Mar 4
52 °FCool.3 mph67%30.21 "HgN/A
11:20 PM55 °FRefreshingly cool.5 mph59%30.21 "HgN/A
10:50 PM55 °FRefreshingly cool.7 mph59%30.21 "HgN/A
10:20 PM55 °FRefreshingly cool.8 mph59%30.21 "HgN/A
9:50 PM55 °FCool.7 mph63%30.21 "HgN/A
9:20 PM57 °FRefreshingly cool.9 mph59%30.21 "HgN/A
8:50 PM57 °FClear.8 mph55%30.21 "Hg10 mi
8:20 PM57 °FClear.12 mph59%30.21 "Hg10 mi
7:50 PM57 °FClear.10 mph59%30.21 "Hg10 mi
7:20 PM57 °FClear.9 mph59%30.21 "Hg10 mi
6:50 PM57 °FClear.12 mph63%30.21 "Hg10 mi
6:20 PM57 °FClear.10 mph63%30.39 "Hg10 mi
5:50 PM59 °FSunny.9 mph55%30.21 "Hg10 mi
5:20 PM61 °FSunny.10 mph52%30.21 "Hg10 mi
4:50 PM61 °FSunny.9 mph55%30.21 "Hg10 mi
4:20 PM61 °FPassing clouds.8 mph63%30.21 "HgN/A
3:50 PM63 °FPassing clouds.8 mph59%30.21 "HgN/A
3:20 PM63 °FPassing clouds.8 mph59%30.21 "HgN/A
2:50 PM63 °FPassing clouds.9 mph64%30.24 "HgN/A
2:20 PM63 °FPassing clouds.12 mph59%30.24 "HgN/A
1:50 PM63 °FScattered clouds.12 mph59%30.24 "HgN/A
1:20 PM63 °FScattered clouds.12 mph59%30.24 "HgN/A
12:50 PM63 °FPartly sunny.12 mph64%30.24 "HgN/A
12:20 PM63 °FPartly sunny.12 mph68%30.27 "HgN/A
11:50 AM63 °FPartly sunny.12 mph68%30.27 "HgN/A
11:20 AM63 °FScattered clouds.10 mph64%30.27 "HgN/A
10:50 AM63 °FScattered clouds.10 mph64%30.27 "HgN/A
10:20 AM61 °FBroken clouds.10 mph72%30.27 "HgN/A
9:50 AM61 °FPartly sunny.10 mph72%30.24 "HgN/A
9:20 AM61 °FBroken clouds.10 mph72%30.24 "HgN/A
8:50 AM61 °FScattered clouds.10 mph72%30.24 "HgN/A
8:20 AM61 °FScattered clouds.8 mph72%30.21 "HgN/A
7:50 AM59 °FScattered clouds.9 mph82%30.21 "HgN/A
7:20 AM59 °FScattered clouds.10 mph77%30.21 "HgN/A
6:50 AM59 °FScattered clouds.9 mph82%30.18 "HgN/A
6:20 AM57 °FCool.9 mph88%30.18 "HgN/A
5:50 AM57 °FLight rain. Overcast.8 mph82%30.18 "HgN/A
5:20 AM55 °FCool.7 mph88%30.18 "HgN/A
Weather by CustomWeather, © 2015

See weather overviewHow to use our weather pages